TimeCST,TemperatureF,Dew PointF,Humidity,Sea Level PressureIn,VisibilityMPH,Wind Direction,Wind SpeedMPH,Gust SpeedMPH,PrecipitationIn,Events,Conditions,WindDirDegrees,DateUTC
12:15 AM,18.0,15.1,88,29.98,10.0,West,3.5,-,N/A,,Clear,280,2013-02-24 06:15:00
12:35 AM,17.1,16.2,96,29.98,7.0,WNW,5.8,-,N/A,,Clear,300,2013-02-24 06:35:00
12:55 AM,17.4,15.3,91,29.98,7.0,West,4.6,-,N/A,,Clear,280,2013-02-24 06:55:00
1:15 AM,17.6,14.9,89,29.99,7.0,West,4.6,-,N/A,,Clear,270,2013-02-24 07:15:00
1:35 AM,17.4,14.2,87,29.99,7.0,West,6.9,-,N/A,,Clear,270,2013-02-24 07:35:00
1:55 AM,17.4,14.5,88,29.99,10.0,West,5.8,-,N/A,,Clear,280,2013-02-24 07:55:00
2:15 AM,15.6,13.6,92,29.99,7.0,WNW,5.8,-,N/A,,Clear,290,2013-02-24 08:15:00
2:35 AM,14.9,13.1,93,30.00,5.0,West,5.8,-,N/A,,Clear,260,2013-02-24 08:35:00
2:55 AM,15.8,15.4,98,30.00,5.0,West,4.6,-,N/A,,Clear,280,2013-02-24 08:55:00
3:15 AM,16.2,15.8,98,30.00,5.0,West,4.6,-,N/A,,Clear,280,2013-02-24 09:15:00
3:35 AM,15.8,14.0,93,30.00,5.0,West,6.9,-,N/A,,Clear,270,2013-02-24 09:35:00
3:55 AM,14.5,12.6,92,30.01,7.0,West,8.1,-,N/A,,Clear,260,2013-02-24 09:55:00
4:15 AM,14.4,12.7,93,30.01,7.0,West,5.8,-,N/A,,Clear,270,2013-02-24 10:15:00
4:35 AM,13.5,11.3,91,30.02,7.0,West,4.6,-,N/A,,Clear,280,2013-02-24 10:35:00
4:55 AM,13.1,10.8,90,30.03,7.0,Calm,Calm,-,N/A,,Clear,0,2013-02-24 10:55:00
5:15 AM,15.3,13.5,93,30.04,7.0,Calm,Calm,-,N/A,,Clear,0,2013-02-24 11:15:00
5:35 AM,14.9,13.1,93,30.04,5.0,Calm,Calm,-,N/A,,Clear,0,2013-02-24 11:35:00
5:55 AM,12.6,10.0,90,30.05,5.0,West,5.8,-,N/A,,Clear,260,2013-02-24 11:55:00
6:15 AM,13.1,11.1,92,30.07,5.0,West,5.8,-,N/A,,Clear,270,2013-02-24 12:15:00
6:35 AM,12.2,10.4,92,30.07,5.0,WNW,3.5,-,N/A,,Clear,290,2013-02-24 12:35:00
6:55 AM,12.2,10.2,92,30.06,5.0,Calm,Calm,-,N/A,,Clear,0,2013-02-24 12:55:00
7:15 AM,13.1,11.1,92,30.07,4.0,WSW,3.5,-,N/A,,Clear,240,2013-02-24 13:15:00
7:35 AM,14.5,12.4,91,30.07,4.0,Calm,Calm,-,N/A,,Clear,0,2013-02-24 13:35:00
7:55 AM,15.4,13.1,90,30.08,4.0,Calm,Calm,-,N/A,,Clear,0,2013-02-24 13:55:00
8:15 AM,17.6,14.9,89,30.08,5.0,Calm,Calm,-,N/A,,Clear,0,2013-02-24 14:15:00
8:35 AM,19.2,15.8,87,30.09,5.0,SW,3.5,-,N/A,,Clear,230,2013-02-24 14:35:00
8:55 AM,21.0,16.9,84,30.11,5.0,SW,4.6,-,N/A,,Clear,230,2013-02-24 14:55:00
9:15 AM,22.8,17.8,81,30.11,7.0,WSW,4.6,-,N/A,,Clear,240,2013-02-24 15:15:00
9:35 AM,23.9,18.5,80,30.11,7.0,SW,4.6,-,N/A,,Clear,230,2013-02-24 15:35:00
9:55 AM,25.5,19.2,77,30.12,7.0,WSW,3.5,-,N/A,,Clear,250,2013-02-24 15:55:00
10:15 AM,27.0,19.4,73,30.12,10.0,Calm,Calm,-,N/A,,Clear,0,2013-02-24 16:15:00
10:35 AM,27.1,18.9,71,30.12,10.0,Calm,Calm,-,N/A,,Clear,0,2013-02-24 16:35:00
10:55 AM,28.4,18.9,67,30.12,10.0,Calm,Calm,-,N/A,,Clear,0,2013-02-24 16:55:00
11:15 AM,29.3,19.4,67,30.12,10.0,Calm,Calm,-,N/A,,Scattered Clouds,0,2013-02-24 17:15:00
11:35 AM,30.0,19.4,65,30.12,10.0,Calm,Calm,-,N/A,,Scattered Clouds,0,2013-02-24 17:35:00
11:55 AM,30.9,19.4,62,30.12,10.0,Calm,Calm,-,N/A,,Clear,0,2013-02-24 17:55:00
12:15 PM,31.8,20.1,62,30.12,10.0,Calm,Calm,-,N/A,,Clear,0,2013-02-24 18:15:00
12:35 PM,32.0,19.8,61,30.11,10.0,Calm,Calm,-,N/A,,Clear,0,2013-02-24 18:35:00
12:55 PM,32.5,20.1,60,30.11,10.0,Calm,Calm,-,N/A,,Clear,0,2013-02-24 18:55:00
1:15 PM,33.3,20.1,59,30.10,10.0,Calm,Calm,-,N/A,,Clear,0,2013-02-24 19:15:00
1:35 PM,33.3,20.1,59,30.10,10.0,Calm,Calm,-,N/A,,Clear,0,2013-02-24 19:35:00
1:55 PM,33.8,19.9,57,30.10,10.0,Calm,Calm,-,N/A,,Clear,0,2013-02-24 19:55:00
2:15 PM,34.3,20.8,58,30.10,10.0,Calm,Calm,-,N/A,,Clear,0,2013-02-24 20:15:00
2:35 PM,35.2,20.1,54,30.10,10.0,Calm,Calm,-,N/A,,Clear,0,2013-02-24 20:35:00
2:55 PM,34.9,19.4,53,30.10,10.0,Calm,Calm,-,N/A,,Clear,0,2013-02-24 20:55:00
3:15 PM,35.1,20.8,56,30.10,10.0,Calm,Calm,-,N/A,,Clear,0,2013-02-24 21:15:00
3:35 PM,35.1,22.1,59,30.10,10.0,Calm,Calm,-,N/A,,Clear,0,2013-02-24 21:35:00
3:55 PM,35.2,22.1,59,30.10,10.0,Calm,Calm,-,N/A,,Clear,0,2013-02-24 21:55:00
4:15 PM,35.8,22.5,58,30.10,10.0,SW,5.8,-,N/A,,Clear,220,2013-02-24 22:15:00
4:35 PM,35.6,22.8,60,30.10,10.0,SW,3.5,-,N/A,,Clear,230,2013-02-24 22:35:00
4:55 PM,35.4,23.5,62,30.10,10.0,Calm,Calm,-,N/A,,Clear,0,2013-02-24 22:55:00
5:15 PM,33.8,24.8,70,30.11,10.0,SSE,4.6,-,N/A,,Clear,160,2013-02-24 23:15:00
5:35 PM,32.2,24.8,74,30.10,10.0,SSE,4.6,-,N/A,,Clear,150,2013-02-24 23:35:00
5:55 PM,32.0,24.1,73,30.11,10.0,SSE,3.5,-,N/A,,Clear,160,2013-02-24 23:55:00
6:15 PM,32.0,23.7,71,30.11,10.0,Calm,Calm,-,N/A,,Clear,0,2013-02-25 00:15:00
6:35 PM,32.0,23.0,69,30.11,10.0,Calm,Calm,-,N/A,,Clear,0,2013-02-25 00:35:00
6:55 PM,32.0,22.5,68,30.12,10.0,Calm,Calm,-,N/A,,Clear,0,2013-02-25 00:55:00
7:15 PM,32.2,22.5,67,30.12,10.0,Calm,Calm,-,N/A,,Clear,0,2013-02-25 01:15:00
7:35 PM,31.1,22.5,70,30.12,10.0,East,3.5,-,N/A,,Clear,80,2013-02-25 01:35:00
7:55 PM,31.1,22.6,71,30.12,10.0,East,3.5,-,N/A,,Clear,80,2013-02-25 01:55:00
8:15 PM,30.6,22.1,71,30.12,10.0,ENE,4.6,-,N/A,,Clear,70,2013-02-25 02:15:00
8:35 PM,30.2,22.1,72,30.12,10.0,ENE,3.5,-,N/A,,Clear,70,2013-02-25 02:35:00
8:55 PM,29.3,22.8,77,30.12,10.0,ENE,3.5,-,N/A,,Clear,60,2013-02-25 02:55:00
9:15 PM,29.1,23.0,78,30.13,10.0,Calm,Calm,-,N/A,,Clear,0,2013-02-25 03:15:00
9:35 PM,29.3,23.0,77,30.13,10.0,East,3.5,-,N/A,,Clear,80,2013-02-25 03:35:00
9:55 PM,28.2,23.0,81,30.13,10.0,ENE,5.8,-,N/A,,Clear,70,2013-02-25 03:55:00
10:15 PM,28.6,22.5,78,30.13,10.0,East,4.6,-,N/A,,Clear,80,2013-02-25 04:15:00
10:35 PM,28.6,22.1,77,30.12,10.0,East,3.5,-,N/A,,Clear,80,2013-02-25 04:35:00
10:55 PM,28.8,21.9,76,30.13,10.0,Calm,Calm,-,N/A,,Clear,0,2013-02-25 04:55:00
11:15 PM,28.4,21.9,77,30.13,10.0,Calm,Calm,-,N/A,,Clear,0,2013-02-25 05:15:00
11:35 PM,28.4,22.1,77,30.13,10.0,Calm,Calm,-,N/A,,Clear,0,2013-02-25 05:35:00
11:55 PM,26.4,22.5,85,30.13,10.0,East,3.5,-,N/A,,Clear,80,2013-02-25 05:55:00